This is the latest recevied weather packets stored in our database for station/object PY2UEP-1. If no packets are shown the sender has not sent any weather packets the latest 1 day(s).
| Time | Temp. | Humidity | Pressure | Rain* | Wind** | Luminosity | Snow |
|---|---|---|---|---|---|---|---|
| 1777976747 | 19.44° C | 87% | 1022.3 hPa | 0 mm | 1.79 m/s, 85° | - | - |
| 1777976447 | 18.89° C | 88% | 1022.4 hPa | 0 mm | 1.79 m/s, 83° | - | - |
| 1777976147 | 18.89° C | 89% | 1022.3 hPa | 0 mm | 2.24 m/s, 86° | - | - |
| 1777975847 | 18.89° C | 89% | 1022.1 hPa | 0 mm | 2.24 m/s, 83° | - | - |
| 1777975547 | 18.89° C | 89% | 1022 hPa | 0 mm | 2.24 m/s, 85° | - | - |
| 1777975247 | 18.33° C | 90% | 1022 hPa | 0 mm | 2.24 m/s, 89° | - | - |
| 1777974947 | 18.33° C | 90% | 1021.9 hPa | 0 mm | 2.24 m/s, 90° | - | - |
| 1777974647 | 18.33° C | 90% | 1021.9 hPa | 0 mm | 2.24 m/s, 92° | - | - |
| 1777974347 | 18.33° C | 90% | 1021.9 hPa | 0 mm | 2.24 m/s, 92° | - | - |
| 1777974047 | 18.33° C | 90% | 1021.8 hPa | 0 mm | 2.24 m/s, 91° | - | - |
| 1777973747 | 18.33° C | 90% | 1021.7 hPa | 0 mm | 2.24 m/s, 92° | - | - |
| 1777973447 | 18.33° C | 90% | 1021.7 hPa | 0 mm | 2.24 m/s, 92° | - | - |
| 1777973147 | 18.89° C | 90% | 1021.6 hPa | 0 mm | 2.24 m/s, 92° | - | - |
| 1777972847 | 18.89° C | 89% | 1021.3 hPa | 0 mm | 2.24 m/s, 93° | - | - |
| 1777972547 | 18.89° C | 89% | 1021.3 hPa | 0 mm | 2.24 m/s, 96° | - | - |
| 1777972247 | 18.89° C | 89% | 1021.3 hPa | 0 mm | 2.24 m/s, 97° | - | - |
| 1777971947 | 18.89° C | 89% | 1021.3 hPa | 0 mm | 2.24 m/s, 97° | - | - |
| 1777971647 | 18.89° C | 89% | 1021.3 hPa | 0 mm | 2.24 m/s, 97° | - | - |
| 1777971347 | 18.89° C | 89% | 1021.2 hPa | 0 mm | 2.68 m/s, 98° | - | - |
| 1777971047 | 18.89° C | 89% | 1021.2 hPa | 0 mm | 2.24 m/s, 97° | - | - |
| 1777970747 | 18.89° C | 89% | 1021.2 hPa | 0 mm | 2.24 m/s, 97° | - | - |
| 1777970447 | 18.89° C | 89% | 1021.1 hPa | 0 mm | 2.24 m/s, 100° | - | - |
| 1777970147 | 18.89° C | 89% | 1021 hPa | 0 mm | 2.24 m/s, 100° | - | - |
| 1777969847 | 18.89° C | 89% | 1021 hPa | 0 mm | 2.24 m/s, 100° | - | - |
| 1777969547 | 18.89° C | 89% | 1021 hPa | 0 mm | 2.24 m/s, 100° | - | - |
* Rain since midnight (hover to see other rain measurements)
** Current wind speed in m/s (hover to see current wind gust speed)